Wind_Speed
75 79 83 84 83 82 82 86 81 80 81 77 78 78 79 79 79 77 77 80 76 74 77 81 77 74 73 70 69 66 65 71 77 69 66 72 74 70 67 68 67 68 72 73 73
72 73 78 78 81 82 84 84 89 84 88 84 83 80 75 77 78 77 81 79 77 76 77 82 81 78 73 71 74 68 70 73 74 70 71 72 74 70 72 71 71 72 73 70 70
70 73 76 79 83 87 86 87 87 87 86 86 87 84 84 74 75 71 79 80 80 78 78 79 75 75 74 75 77 72 70 72 73 72 73 73 75 74 72 70 71 74 71 69 68
67 68 71 76 80 81 84 86 86 86 87 87 87 90 87 83 75 79 77 79 81 82 80 79 79 75 75 72 76 75 68 72 72 75 74 74 73 73 72 69 77 74 65 67 71
61 67 70 73 75 78 83 85 86 88 88 88 88 87 93 87 84 89 88 83 81 82 83 80 80 81 75 74 81 76 73 71 73 76 79 76 70 71 71 74 73 67 69 68 70
51 59 66 68 71 73 75 80 86 89 91 91 90 89 87 78 85 90 89 90 86 87 88 87 88 87 81 79 76 77 73 74 76 77 78 72 67 71 74 73 69 65 65 65 70
41 45 50 58 69 76 78 80 81 85 88 89 90 92 86 81 89 93 96 93 92 88 87 85 87 88 82 84 78 77 74 77 76 75 70 71 66 70 71 67 60 62 62 67 66
51 53 55 58 61 64 68 77 81 82 83 87 88 90 85 85 91 90 97 92 95 93 92 92 89 81 68 72 73 71 76 73 77 77 75 68 66 64 63 61 63 62 64 64 58
61 63 65 64 65 69 71 73 76 81 84 83 83 85 77 81 87 92 93 92 95 94 92 93 89 78 70 63 68 72 75 77 79 78 73 61 62 61 60 60 62 63 64 58 61
63 64 68 72 76 77 78 79 78 78 78 82 80 78 77 80 87 90 89 88 90 88 87 87 85 76 68 63 63 77 78 75 77 73 64 60 56 59 59 59 59 59 56 56 61
71 78 79 80 82 85 84 87 84 83 81 81 77 73 69 69 79 86 88 87 88 86 82 85 84 71 67 69 70 72 66 67 75 70 62 60 56 59 59 58 57 54 53 59 64
79 83 89 92 97 98 97 96 91 87 83 84 82 75 74 71 72 77 78 83 81 81 86 85 72 76 75 76 73 66 62 64 73 69 60 57 54 57 56 52 46 49 54 59 64
87 94 103 111 116 112 110 108 106 101 93 88 86 82 81 79 71 78 79 74 75 76 76 74 68 78 78 76 71 66 60 65 68 62 53 55 54 55 52 44 44 52 56 60 64
100 105 109 111 112 114 116 115 114 107 105 88 96 91 91 88 78 80 79 80 73 63 62 61 60 66 72 72 70 67 68 68 65 63 56 54 52 53 46 43 50 56 57 58 63
105 103 97 91 91 88 90 96 107 117 111 105 98 96 96 90 83 83 83 83 77 70 67 53 58 54 58 62 66 67 70 68 66 61 55 53 44 48 40 50 51 54 53 58 63
87 77 74 71 71 72 76 80 85 104 111 117 108 111 98 95 92 89 86 81 81 73 66 65 64 62 55 61 68 69 72 67 61 55 46 47 47 43 42 47 49 50 52 56 57
65 59 57 60 59 63 66 70 75 79 103 119 114 113 105 99 99 96 93 84 74 70 59 61 54 50 49 50 51 54 53 50 45 40 38 54 36 36 40 43 46 48 50 47 43
54 50 49 50 51 54 57 58 64 73 84 113 115 110 109 105 106 100 93 86 75 73 68 65 61 51 49 46 44 46 44 41 43 45 48 46 30 36 39 41 45 48 43 38 34
49 46 43 44 46 47 48 51 58 65 72 88 116 114 107 108 108 100 94 90 82 78 70 65 64 66 62 62 63 55 42 46 49 46 40 26 35 40 42 41 47 43 32 32 33
49 43 39 39 41 42 42 45 49 55 63 78 100 118 114 113 109 103 101 97 90 86 81 73 69 74 75 73 66 60 54 56 47 37 31 35 40 39 37 35 41 30 29 28 30
46 40 37 36 37 37 37 40 44 46 56 69 79 97 114 114 112 103 105 100 97 91 82 74 69 74 77 61 63 62 54 46 41 38 41 42 40 38 34 42 30 23 26 25 28
43 37 33 34 32 33 33 34 38 42 53 63 72 84 95 112 114 109 106 104 98 91 85 79 74 70 68 69 68 64 61 58 54 51 46 45 41 33 35 36 26 20 21 23 21
39 33 29 29 27 28 30 32 36 43 53 61 68 79 86 102 114 111 106 103 100 93 88 83 75 74 67 71 67 56 54 52 49 46 46 44 42 40 34 29 23 19 17 17 16
35 28 25 26 24 25 27 29 32 38 48 55 62 71 77 91 106 110 110 104 101 98 91 85 76 70 58 52 59 60 52 50 51 50 46 42 45 34 27 29 24 19 16 13 11
35 27 22 20 21 22 24 27 29 34 39 47 54 64 72 81 96 108 110 108 105 98 94 85 77 71 67 61 55 51 57 59 55 48 47 45 31 29 32 28 24 18 15 10 7
35 27 20 16 17 19 20 21 26 30 34 41 49 58 66 75 86 101 106 104 107 101 95 88 82 75 71 65 59 51 48 43 39 41 41 39 33 34 32 27 26 19 13 11 5
35 28 20 15 13 15 17 20 24 27 31 36 44 52 60 68 76 89 101 104 105 102 95 90 85 77 72 67 64 58 40 31 29 32 32 28 33 34 32 31 27 19 14 11 2
Wind_Direction
240 240 241 245 246 245 243 242 239 241 243 244 245 247 250 252 248 251 254 253 258 258 258 257 255 256 258 263 265 272 276 277 280 280 279 286 291 291 293 295 293 293 297 299 299
246 246 245 247 248 249 249 249 246 240 241 243 245 244 242 247 249 253 249 253 256 256 257 254 255 259 258 258 264 265 273 276 277 278 280 286 292 292 295 294 293 294 294 296 296
250 249 248 247 247 247 247 247 248 248 247 250 240 242 240 241 246 248 251 252 252 254 255 257 254 255 258 260 261 262 270 272 273 278 283 286 289 290 290 291 291 294 298 295 297
250 252 253 253 252 252 251 251 252 252 250 249 247 241 242 242 243 251 252 249 250 251 251 252 254 255 254 257 261 267 268 267 274 280 280 281 285 286 292 287 291 296 295 296 299
254 255 255 254 253 254 255 254 254 253 252 251 251 250 243 242 243 249 248 247 245 248 249 250 252 253 255 258 264 267 265 272 274 274 275 278 284 287 287 289 293 294 294 297 298
254 253 249 251 252 253 253 253 254 254 254 253 253 251 250 251 250 251 250 253 248 248 250 247 248 249 253 256 262 265 269 271 271 270 273 276 285 284 284 290 292 293 294 296 297
265 263 262 257 252 252 252 252 253 253 254 254 254 253 250 247 245 251 250 253 254 253 252 250 251 251 252 254 259 260 264 267 268 266 271 277 282 278 284 288 291 293 295 295 297
273 270 268 265 262 259 255 252 249 249 251 253 254 254 253 249 252 251 248 250 252 254 253 253 255 255 258 258 259 261 261 261 262 266 270 281 275 279 283 286 288 293 295 295 299
280 276 274 270 265 262 261 258 255 251 248 249 250 253 252 252 250 245 250 249 249 253 255 255 258 262 261 258 255 257 256 259 263 268 277 280 274 277 280 284 289 292 294 296 294
280 273 271 268 266 265 263 258 257 255 253 250 245 247 247 247 249 250 249 249 250 250 252 255 255 254 254 256 250 249 252 260 266 268 271 271 272 275 280 285 290 291 292 292 295
284 283 277 271 266 265 260 256 255 253 253 252 250 242 240 243 249 248 250 250 249 251 252 250 252 257 248 245 244 250 256 258 261 263 264 269 270 277 280 286 287 290 291 295 297
281 274 265 261 257 251 249 248 249 248 250 249 247 245 242 236 240 248 247 246 247 246 245 249 256 247 244 249 253 253 256 256 258 260 263 268 270 274 282 284 286 287 287 295 303
280 271 261 255 252 252 250 248 244 242 240 246 243 240 241 239 234 239 246 247 248 248 250 249 246 247 248 250 250 252 253 253 255 259 260 266 271 277 279 282 282 281 288 298 303
281 275 274 272 267 262 257 254 247 244 240 235 241 235 234 237 234 236 238 245 246 246 245 247 242 246 247 246 247 249 247 250 253 259 262 270 273 275 278 278 278 281 290 301 306
289 286 281 275 271 265 258 251 245 242 239 230 234 231 233 234 232 232 232 236 240 240 239 240 244 240 240 239 239 239 243 248 254 263 267 268 269 270 274 274 280 285 292 298 304
292 286 279 273 267 261 255 250 242 236 232 229 229 233 229 230 231 229 234 234 238 238 236 238 244 245 235 233 238 240 247 250 255 262 265 259 262 266 269 275 281 286 293 300 308
294 286 277 272 267 261 254 248 243 236 228 227 228 230 230 229 229 228 230 230 237 242 243 238 246 245 243 243 242 244 245 248 253 250 244 258 261 263 267 276 281 289 300 304 300
299 289 280 275 269 262 254 247 241 235 228 226 227 230 228 228 228 228 229 230 227 236 235 231 233 227 242 245 242 241 237 234 235 237 241 263 262 266 275 278 284 295 303 296 292
302 294 287 279 270 262 254 245 237 232 228 223 223 227 226 227 226 225 227 227 224 227 230 232 226 224 220 222 229 239 240 240 238 242 252 249 267 269 270 281 284 299 288 287 286
307 299 290 280 272 262 253 244 238 231 228 225 222 222 220 222 224 223 223 224 224 223 224 223 223 223 222 219 225 232 235 239 245 247 252 256 259 265 275 287 294 294 274 280 293
312 303 292 282 272 262 251 243 236 229 223 226 226 223 221 221 222 222 222 221 222 222 223 224 225 227 228 229 230 231 239 246 248 252 255 252 257 266 284 288 296 270 269 280 294
317 307 294 282 274 262 250 239 231 223 220 223 219 221 220 220 220 220 221 223 222 222 221 224 223 230 228 225 229 229 228 230 231 236 241 247 262 277 282 286 272 250 267 278 297
322 311 297 285 274 263 249 238 227 219 218 218 219 218 214 217 219 218 219 222 223 221 220 222 222 225 225 227 237 238 233 238 241 243 248 256 266 274 272 256 238 240 260 277 289
329 319 304 291 276 261 248 239 229 221 220 217 217 218 217 212 216 217 219 220 223 222 220 220 220 226 229 230 233 234 235 237 241 243 255 264 270 255 230 231 221 230 249 267 278
337 332 316 294 278 264 249 241 233 225 220 219 218 218 216 213 213 215 217 218 221 222 220 219 217 220 223 223 224 226 231 236 242 247 255 256 248 219 216 217 213 219 237 251 276
342 341 329 310 285 269 256 241 237 228 222 217 217 218 216 213 212 213 214 214 220 221 219 218 217 216 221 222 222 222 224 229 236 242 246 248 226 210 209 215 212 213 224 236 263
347 346 342 323 299 278 255 239 230 227 222 218 216 216 216 213 209 212 213 211 215 219 220 216 217 216 219 220 222 221 219 216 229 232 235 233 206 205 207 213 210 208 212 230 265
Height
10772 10775 10778 10779 10781 10782 10787 10792 10794 10798 10802 10807 10810 10814 10818 10822 10827 10833 10832 10820 10829 10837 10836 10834 10837 10841 10848 10849 10854 10859 10864 10857 10849 10854 10854 10847 10853 10850 10853 10851 10846 10844 10836 10830 10822
10762 10764 10766 10766 10767 10771 10773 10776 10780 10784 10789 10794 10798 10802 10805 10810 10815 10824 10803 10814 10819 10823 10823 10820 10822 10832 10839 10838 10842 10850 10854 10846 10839 10844 10843 10843 10842 10841 10842 10836 10835 10834 10829 10820 10813
10751 10752 10754 10756 10757 10759 10760 10762 10765 10768 10773 10777 10782 10787 10793 10800 10806 10809 10798 10799 10804 10809 10810 10807 10810 10821 10827 10828 10825 10841 10847 10834 10831 10830 10834 10834 10833 10830 10831 10826 10823 10822 10817 10807 10802
10736 10736 10737 10738 10741 10744 10746 10747 10749 10752 10757 10760 10764 10771 10779 10790 10802 10792 10783 10784 10786 10793 10796 10797 10800 10807 10813 10818 10808 10830 10833 10825 10824 10819 10822 10822 10825 10821 10819 10818 10813 10810 10805 10797 10789
10726 10725 10724 10724 10725 10726 10727 10729 10731 10735 10739 10741 10746 10752 10760 10781 10795 10766 10759 10771 10775 10778 10782 10786 10792 10792 10802 10803 10803 10818 10815 10818 10817 10811 10807 10810 10813 10811 10809 10807 10804 10799 10794 10787 10779
10713 10711 10710 10710 10711 10710 10711 10710 10711 10713 10718 10723 10729 10736 10747 10775 10750 10736 10746 10756 10762 10767 10768 10775 10773 10775 10794 10794 10798 10800 10807 10808 10805 10800 10799 10799 10804 10802 10791 10797 10794 10790 10783 10777 10769
10702 10699 10697 10696 10694 10694 10692 10693 10696 10697 10700 10703 10709 10716 10733 10749 10719 10725 10743 10741 10737 10748 10753 10754 10750 10761 10782 10784 10788 10793 10799 10798 10789 10784 10794 10792 10797 10788 10787 10787 10781 10779 10775 10768 10760
10687 10684 10681 10680 10678 10675 10673 10674 10675 10678 10681 10683 10689 10694 10718 10703 10707 10717 10702 10721 10720 10727 10731 10731 10731 10751 10773 10773 10779 10783 10788 10786 10769 10777 10781 10792 10778 10778 10779 10777 10771 10769 10765 10759 10751
10668 10664 10661 10658 10656 10654 10654 10654 10655 10659 10662 10665 10671 10679 10697 10685 10687 10676 10692 10704 10701 10709 10719 10715 10722 10748 10754 10764 10768 10771 10768 10768 10763 10765 10775 10782 10769 10771 10768 10768 10762 10760 10755 10748 10743
10645 10642 10637 10634 10632 10629 10628 10629 10631 10637 10640 10646 10653 10660 10669 10665 10662 10666 10673 10681 10685 10692 10699 10706 10711 10730 10742 10748 10756 10743 10752 10758 10753 10760 10768 10767 10766 10762 10759 10759 10753 10749 10744 10739 10735
10615 10608 10602 10599 10597 10595 10598 10598 10604 10610 10621 10626 10637 10644 10646 10648 10647 10647 10652 10662 10665 10676 10688 10686 10691 10722 10724 10720 10726 10732 10747 10750 10735 10749 10759 10757 10760 10751 10750 10748 10745 10740 10734 10729 10724
10582 10572 10566 10561 10557 10556 10558 10557 10572 10582 10598 10603 10612 10624 10622 10623 10629 10626 10630 10642 10649 10660 10660 10670 10698 10691 10695 10706 10717 10727 10735 10732 10725 10731 10749 10749 10751 10744 10742 10738 10737 10732 10727 10722 10717
10545 10534 10525 10519 10515 10514 10514 10525 10538 10547 10564 10572 10583 10600 10593 10597 10612 10612 10612 10623 10632 10639 10648 10661 10667 10672 10685 10695 10709 10715 10718 10711 10710 10725 10739 10738 10739 10737 10734 10732 10730 10724 10720 10717 10709
10499 10489 10481 10475 10474 10472 10473 10491 10496 10511 10525 10553 10540 10562 10566 10567 10594 10586 10600 10601 10615 10630 10629 10642 10650 10659 10669 10683 10692 10700 10695 10693 10704 10716 10725 10730 10729 10725 10725 10726 10722 10716 10715 10709 10702
10458 10442 10429 10423 10417 10421 10426 10433 10454 10467 10492 10501 10516 10529 10541 10558 10572 10569 10572 10580 10598 10610 10617 10638 10635 10645 10653 10664 10671 10674 10675 10686 10694 10709 10717 10717 10717 10713 10720 10716 10712 10709 10710 10703 10696
10417 10403 10392 10387 10384 10384 10386 10394 10408 10419 10464 10456 10481 10482 10520 10535 10545 10552 10561 10573 10579 10594 10612 10620 10625 10633 10646 10643 10650 10653 10669 10680 10691 10699 10706 10699 10707 10709 10712 10707 10703 10703 10703 10696 10689
10386 10374 10366 10357 10357 10355 10358 10367 10375 10398 10418 10423 10455 10457 10492 10512 10520 10528 10536 10560 10578 10591 10611 10619 10626 10629 10631 10637 10646 10650 10665 10677 10684 10688 10691 10686 10703 10701 10703 10701 10698 10698 10696 10688 10683
10361 10350 10341 10335 10334 10333 10337 10346 10355 10363 10379 10393 10426 10437 10463 10480 10489 10510 10533 10548 10570 10574 10587 10602 10609 10619 10627 10631 10636 10640 10650 10665 10668 10673 10676 10688 10698 10694 10695 10691 10691 10692 10688 10683 10680
10340 10330 10322 10317 10314 10314 10319 10325 10330 10341 10355 10373 10384 10408 10439 10448 10466 10497 10518 10530 10547 10552 10570 10583 10597 10599 10607 10613 10620 10632 10646 10649 10655 10664 10673 10685 10685 10688 10686 10683 10686 10687 10682 10678 10675
10321 10313 10306 10300 10298 10299 10302 10306 10314 10326 10339 10343 10354 10376 10406 10421 10449 10475 10488 10505 10522 10529 10539 10557 10572 10579 10583 10596 10613 10627 10630 10633 10651 10662 10671 10675 10676 10680 10678 10675 10681 10680 10676 10674 10671
10306 10297 10290 10285 10284 10285 10288 10293 10299 10310 10322 10327 10343 10361 10389 10407 10427 10452 10468 10484 10498 10513 10532 10550 10563 10567 10575 10608 10613 10616 10632 10640 10649 10657 10664 10668 10668 10672 10671 10669 10675 10675 10672 10670 10667
10292 10282 10276 10270 10272 10273 10276 10280 10286 10294 10301 10309 10322 10339 10366 10389 10403 10432 10450 10465 10485 10506 10519 10535 10550 10561 10583 10588 10593 10605 10614 10622 10635 10645 10653 10660 10663 10665 10663 10664 10669 10670 10669 10667 10664
10280 10270 10263 10259 10261 10262 10265 10268 10274 10279 10283 10293 10305 10316 10339 10366 10385 10414 10434 10453 10473 10491 10508 10521 10543 10547 10564 10578 10588 10608 10624 10631 10636 10642 10648 10652 10654 10657 10657 10659 10664 10667 10666 10664 10662
10269 10261 10255 10250 10251 10251 10255 10258 10264 10269 10274 10283 10294 10306 10327 10348 10370 10394 10417 10443 10455 10475 10495 10513 10534 10548 10570 10585 10591 10604 10614 10623 10628 10635 10637 10642 10647 10647 10650 10654 10660 10664 10663 10662 10660
10261 10254 10248 10244 10243 10243 10246 10251 10256 10261 10269 10278 10288 10298 10314 10332 10352 10374 10396 10427 10439 10460 10482 10506 10526 10538 10550 10562 10573 10586 10597 10607 10618 10623 10631 10627 10637 10640 10642 10649 10656 10660 10659 10658 10657
10255 10249 10244 10240 10237 10237 10240 10246 10249 10256 10263 10269 10277 10287 10300 10318 10337 10353 10378 10410 10425 10447 10471 10497 10512 10528 10536 10552 10565 10576 10586 10598 10608 10613 10618 10622 10629 10632 10638 10646 10651 10655 10655 10655 10655
10252 10246 10240 10237 10234 10233 10235 10237 10241 10247 10255 10262 10268 10277 10290 10307 10326 10343 10361 10389 10405 10433 10458 10483 10500 10518 10528 10541 10550 10562 10584 10595 10601 10605 10610 10619 10626 10629 10635 10639 10645 10650 10651 10652 10650